User: anonymous   Login
Location: Unspecified
(0.0000°N, 0.0000°E)
Time: 13:24:54
(UTC+00:00)
Language:

EQUISAT - Orbit

View from above orbital plane
View from above orbital plane
View from above satellite
View from above satellite

Ground track
Ground track

The orbit data is extracted from the following two-line orbital elements,

1 43552U 98067PA  19047.77965801 +.00008822 +00000-0 +11856-3 0  9997
2 43552 051.6381 235.3713 0006283 052.3081 307.8481 15.58744435033987
Epoch (UTC): 16 February 2019 18:42:42
Eccentricity: 0.0006283
inclination: 51.6381°
perigee height: 387 km
apogee height: 395 km
right ascension of ascending node: 235.3713°
argument of perigee: 52.3081°
revolutions per day: 15.58744435
mean anomaly at epoch: 307.8481°
orbit number at epoch: 3398

The dashed part of the orbit path shows where the satellite is in the earth's shadow,  

DLR